Mountain Home AFB, ID

6:42 PM MST on December 05, 2016 (GMT -0700)
Mountain Home Air Force Base

Weather History for KMUO - March, 2014

Change the Weather History Date:

Friday, March 14, 2014

  Actual Average Record
Temperature  
Mean Temperature 42 °F 42 °F  
Max Temperature 55 °F 54 °F 72 °F (1992)
Min Temperature 29 °F 30 °F 12 °F (1941)
Degree Days  
Heating Degree Days 23 23  
Month to date heating degree days 273 345  
Cooling Degree Days 0 0  
Month to date cooling degree days 0 0  
Moisture  
Dew Point 37 °F    
Average Humidity 79    
Maximum Humidity 100    
Minimum Humidity 41    
Precipitation  
Precipitation 0.01 in 0.04 in 0.35 in (1983)
Month to date precipitation 0.44 0.51  
Sea Level Pressure  
Sea Level Pressure 30.12 in    
Wind  
Wind Speed 7 mph (North)    
Max Wind Speed 16 mph    
Max Gust Speed -    
Visibility 10 miles    
Events Rain    
T = Trace of Precipitation, MM = Missing Value Source: NWS Daily Summary

Daily Weather History Graph

Daily Weather History Graph

Search for Another Location

Airport or City:

Trip Planner

Search our weather history database for the weather conditions in past years. The results will help you decide how hot, cold, wet, or windy it might be!

Date:

Astronomy

Mar. 14, 2014 Rise Set
Actual Time 7:57 AM MDT 7:48 PM MDT
Civil Twilight 7:28 AM MDT 8:17 PM MDT
Nautical Twilight 6:55 AM MDT 8:50 PM MDT
Astronomical Twilight 6:22 AM MDT 9:23 PM MDT
Moon 6:13 PM MDT (3/14) 6:41 AM MDT (3/14)
Length of Visible Light 12h 48m
Length of Day
11h 51m
Waxing Gibbous, 96% of the Moon is Illuminated
Mar 14
Waxing Gibbous
Mar 16
Full
Mar 23
Last Quarter
Mar 30
New
Apr 7
First Quarter

Hourly Weather History & Observations

Time (MDT) Temp. Windchill Dew Point Humidity Pressure Visibility Wind Dir Wind Speed Gust Speed Precip Events Conditions
12:58 AM 37.2 °F - 35.1 °F 92% 30.04 in 10.0 mi NNW 1.2 mph - N/A   Clear
1:58 AM 32.9 °F 29.8 °F 32.7 °F 99% 30.05 in 10.0 mi ENE 3.5 mph - N/A   Clear
2:58 AM 31.8 °F 28.5 °F 31.8 °F 100% 30.04 in 10.0 mi East 3.5 mph - N/A   Clear
3:58 AM 30.9 °F 25.2 °F 30.9 °F 100% 30.04 in 10.0 mi ENE 5.8 mph - N/A   Clear
4:58 AM 31.3 °F 25.6 °F 31.3 °F 100% 30.04 in 10.0 mi East 5.8 mph - N/A   Clear
5:58 AM 31.3 °F 23.9 °F 31.3 °F 100% 30.03 in 10.0 mi East 8.1 mph - N/A   Clear
6:58 AM 29.3 °F 22.3 °F 29.3 °F 100% 30.06 in 10.0 mi ENE 6.9 mph - N/A   Partly Cloudy
7:58 AM 31.5 °F 26.8 °F 31.5 °F 100% 30.07 in 10.0 mi East 4.6 mph - N/A   Overcast
8:58 AM 34.3 °F 30.2 °F 34.3 °F 100% 30.09 in 10.0 mi East 4.6 mph - N/A   Mostly Cloudy
9:58 AM 40.6 °F 34.8 °F 40.3 °F 99% 30.08 in 10.0 mi East 9.2 mph - N/A   Mostly Cloudy
10:58 AM 45.1 °F 42.0 °F 38.5 °F 77% 30.11 in 10.0 mi ESE 5.8 mph - N/A   Mostly Cloudy
11:58 AM 47.8 °F - 35.6 °F 63% 30.11 in 10.0 mi East 2.3 mph - N/A   Overcast
12:58 PM 51.8 °F - 34.9 °F 53% 30.11 in 10.0 mi NW 4.6 mph - N/A   Overcast
1:58 PM 53.8 °F - 32.7 °F 45% 30.14 in 10.0 mi NW 16.1 mph - N/A   Overcast
2:03 PM 53.6 °F - 32.0 °F 44% 30.11 in 10.0 mi NW 13.8 mph - N/A   Overcast
2:28 PM 53.6 °F - 32.0 °F 44% 30.11 in 10.0 mi NW 9.2 mph - N/A   Overcast
2:38 PM 53.6 °F - 32.0 °F 44% 30.11 in 10.0 mi NW 13.8 mph - N/A   Overcast
2:48 PM 55.4 °F - 32.0 °F 41% 30.11 in 10.0 mi WNW 12.7 mph - N/A   Overcast
2:58 PM 54.3 °F - 30.9 °F 41% 30.14 in 10.0 mi NW 11.5 mph - N/A   Overcast
3:03 PM 53.6 °F - 32.0 °F 44% 30.10 in 10.0 mi WNW 12.7 mph - N/A   Light Drizzle
3:08 PM 53.6 °F - 32.0 °F 44% 30.11 in 10.0 mi WNW 12.7 mph - N/A   Light Drizzle
3:18 PM 53.6 °F - 32.0 °F 44% 30.11 in 10.0 mi WNW 16.1 mph - N/A   Overcast
3:58 PM 52.7 °F - 39.7 °F 61% 30.15 in 10.0 mi WNW 16.1 mph - 0.00 in Rain Light Rain
4:38 PM 50.0 °F - 50.0 °F 100% 30.13 in 10.0 mi WNW 10.4 mph - N/A   Overcast
4:43 PM 50.0 °F - 50.0 °F 100% 30.12 in 10.0 mi WNW 6.9 mph - N/A   Overcast
4:58 PM 50.7 °F - 50.0 °F 97% 30.17 in 10.0 mi NNW 10.4 mph - 0.01 in   Mostly Cloudy
5:58 PM 52.3 °F - 48.2 °F 86% 30.15 in 10.0 mi North 9.2 mph - N/A   Partly Cloudy
6:58 PM 51.8 °F - 44.6 °F 76% 30.17 in 10.0 mi NE 4.6 mph - N/A   Clear
7:58 PM 46.6 °F - 46.2 °F 99% 30.17 in 10.0 mi SSE 3.5 mph - N/A   Partly Cloudy
8:58 PM 43.5 °F 40.1 °F 43.5 °F 100% 30.19 in 10.0 mi SSW 5.8 mph - N/A   Clear
9:58 PM 41.0 °F - 41.0 °F 100% 30.22 in 10.0 mi Calm Calm - N/A   Partly Cloudy
10:58 PM 39.0 °F 33.4 °F 39.0 °F 100% 30.22 in 10.0 mi West 8.1 mph - N/A   Clear
11:58 PM 36.3 °F 28.9 °F 36.3 °F 100% 30.23 in 10.0 mi West 10.4 mph - N/A   Clear